Weather in Oshchepkovo

Russia / Tyumen Oblast     56°28′59″N   70°41′56″E
temp.,
°C
wind,
m/s
gust,
m/s
humid.,
%
clouds,
%
prec.,
mm/h
press.,
hPa
HPBL,
m
15 may, sat
sat1523:00+17ssw412435 0.0 1021181
02:00+17sw51540100 0.0 1020255
05:00+17wsw412538 0.0 1020229
08:00+22w574681 0.0 1019390
11:00+28w57315 0.0 10181276
14:00+30wnw67265 0.0 10173096
17:00+29wnw68291 0.0 10152400
20:00+22nne23534 0.0 101644
16 may, sun
sun1623:00+17sse596421 0.1 1015124
02:00+17sse22635 0.1 101442
05:00+16w3866100 0.1 1014148
08:00+22nw7115194 0.0 1015723
11:00+25nw7104164 0.0 10161621
14:00+28nw7113552 0.0 10152624
17:00+28nnw593696 0.0 10152507
20:00+20ene486664 0.3 1015131
17 may, mon
mon1723:00+17ese347774 0.3 101655
02:00+16sse357697 0.0 101680
05:00+16sse467929 0.0 101691
08:00+23w47470 0.0 1015347
11:00+29wnw710295 0.0 10142567
14:00+31wnw711245 0.0 10143826
17:00+30w611262 0.0 10122623
20:00+21nw485037 0.0 1012127
18 may, tue
tue1823:00+19n495945 0.1 1012226
02:00+16w337211 0.0 101235
05:00+16w387188 0.0 1011147
08:00+21w475345 0.0 1011485
11:00+26wnw583528 0.0 10092611
14:00+26wsw593696 0.0 10072405
17:00+18n8147091 0.8 10081152
20:00+17nw5106574 0.2 1008383
19 may, wed
wed1923:00+14n61190100 1.7 1009653
02:00+12n71288100 0.2 1012923
05:00+11n81285100 1.1 1015843
08:00+12n710661 0.0 10181066
11:00+14n79455 0.0 10201626
14:00+15n8103616 0.0 10211876
17:00+14n7935100 0.0 10221792
20:00+10n48460 0.0 1024213